Retour au catalogue

STARLINK-4006

ActifCommunicationsVLEO
NORAD 52676·PAYLOAD·🇺🇸 United States

Lancé May 18, 2022 depuis Cape Canaveral Space Force Station

Loading…

Prochains Passages (prochaines 24 heures)

TLE

FraisSource: CelesTrak SupGP

Époque: Sep 15, 2026, 01:53 UTC

1 52676C 22053W   26258.07895833 -.00000193  00000+0 -55342-5 0  2580
2 52676  53.1589  13.5695 0001129  87.4353 184.3475 15.35394476    11

Suivez STARLINK-4006 en temps réel avec AllMySat

Download on the App Store